map of MGSJ home
MGSJ - Airport
Location
City:  Puerto San JosÚ, Escuintla, Guatemala
Name:San JosÚ
ICAO:MGSJ

Details
Type:Airport (Aerodrome, Airfield)
Use:Public/Civil, Military
Latitude:13░56'10"N (13.936192)
Longitude:90░50'09"W (-90.835832)
Datum:WGS 1984
Elevation:29 ft (9 m)
Variation:1.18░E (WMM2015 magnetic declination)
-0.14░ annual change
Runways:1
Longest:6595 × 150 ft (2010 × 45.5 m), paved

Time
Time Zone:UTC-6
Local Time:

Weather
METAR:MGSJ 130000Z 00000KT 8000 FEW028CB 27/21 Q1012 A2988 FU CB/LTNG N/NNW
TAF:MGSJ 121100Z 1212/1312 00000KT CAVOK TX34/1220Z TN20/1212Z
BECMG 1215/1217 18008KT
TEMPO 1218/1301 23012KT 8000 FEW020
BECMG 1301/1303 00000KT

Related Locations
Nearby:
Farthest:CCK: 11918 mi / 19180 km
West Island (Pulau Panjang) [Cocos (Keeling) Islands], CC

Find:

   beyond  
but within

Other Information
Maps:
NOTAMs:
Links:
Sources:

  
  • flag of Guatemala
  • flag of Escuintla
  

Sectional Chart

Flight Planning
at skyvector.com

Satellite Image

Google Maps Satellite view

 

Copyright © 2004-2018 Karl L. Swartz. All rights reserved.
The Great Circle Mapper name and logo are trademarks of the Great Circle Mapper.
All other trademarks mentioned herein belong to their respective owners.
Please see credits for attibutions and further copyright information.

  Follow gcmap on Facebook Follow gcmap on Twitter Follow gcmap on Google+ GCmap on LinkedIn

hCard Microformat

Geo Microformat